[[{"header":{"parameterUnit":"m.s-1","parameterCategory":1,"la1":30.2991,"la2":30.254,"lo1":-89.0895,"lo2":-89.0444,"dy":0.0017,"dx":0.0017,"nx":28,"ny":28,"refTime":"2025-02-01T09:00:00:Z","depth":0,"parameterNumber":2,"parameterNumberName":"U-component_of_WINDS"},"data":[0,0,0,0,0,0,0,0,0,0,0,0,0,0,0,0,0,0,0,0,0,0,0,0,0,0,0,0,0,0,0,0,0,0,0,0,0,0,0,0,0,0,0,0,0,0,0,0,0,0,0,0,0,0,0,0,0,0,0.4414,0.4415,0,0.4499,0.45,0.4501,0.4535,0.4535,0.4535,0.4535,0.4624,0.4627,0.4629,0,0,0,0,0,0,0,0,0,0,0,0,0,0.428,0.4282,0.4414,0.4415,0.4416,0.4499,0.45,0.4501,0.4535,0.4535,0.4535,0.4535,0.4623,0.4626,0.4629,0,0,0,0,0,0,0,0,0,0,0,0,0,0.4349,0.4283,0.4413,0.4443,0.4446,0.4499,0.45,0.4502,0.4535,0.4535,0.4535,0.4534,0.4622,0.4626,0.463,0.466,0,0,0.4642,0.4643,0,0,0,0,0,0,0,0,0.4345,0.4354,0.4437,0.4441,0.4445,0.4506,0.4486,0.4555,0.4536,0.4502,0.4535,0.4534,0.4585,0.4592,0.4609,0.4665,0.4668,0.4642,0.4644,0.4646,0.4647,0,0,0,0,0,0,0,0.434,0.435,0.4448,0.4438,0.4443,0.4452,0.4461,0.4499,0.4544,0.4505,0.4507,0.4517,0.4587,0.4605,0.4611,0.467,0.4642,0.4645,0.4648,0.4649,0.4753,0.4753,0,0,0,0,0,0,0.433,0.4346,0.4445,0.445,0.4393,0.4454,0.4465,0.4487,0.4544,0.4552,0.4517,0.4518,0.4599,0.4607,0.4615,0.4653,0.4646,0.465,0.4652,0.4752,0.4753,0.4753,0,0,0,0,0,0,0.4327,0.4339,0.4441,0.4399,0.4412,0.4457,0.4481,0.4489,0.4507,0.4553,0.4562,0.4527,0.4599,0.4609,0.4648,0.4657,0.4651,0.4655,0.4752,0.4753,0.4753,0.4731,0,0,0,0,0,0,0.4323,0.4337,0.435,0.4399,0.4415,0.4474,0.4482,0.4491,0.4513,0.4515,0.4565,0.4573,0.4599,0.4642,0.4652,0.4662,0.4658,0.4751,0.4752,0.4753,0.4732,0.4731,0.4731,0,0,0,0,0,0.4318,0.4341,0.435,0.4362,0.4431,0.4474,0.4483,0.4513,0.4514,0.4526,0.4556,0.4571,0.4654,0.4646,0.4657,0.4669,0.4751,0.4752,0.4753,0.4732,0.4731,0.4731,0,0,0,0,0,0,0.4293,0.4348,0.4359,0.4398,0.4431,0.448,0.4497,0.4511,0.4545,0.4546,0.4582,0.4593,0.4628,0.4653,0.4643,0.47,0.4704,0.4707,0.4684,0.4684,0.4683,0.4677,0.4661,0,0,0,0,0,0.4291,0.4322,0.4368,0.4398,0.4414,0.4452,0.4472,0.4492,0.4528,0.4542,0.4575,0.4609,0.4643,0.4664,0.4698,0.4735,0.4746,0.4748,0.4747,0.4747,0.475,0.477,0.4771,0.4757,0.4757,0.4756,0,0,0.429,0.4323,0.4341,0.4394,0.4422,0.4452,0.4464,0.4496,0.4519,0.4547,0.4586,0.461,0.4651,0.4689,0.4707,0.471,0.4756,0.4748,0.4747,0.4751,0.4771,0.4772,0.4773,0.4757,0.4757,0.4757,0,0,0.4302,0.4331,0.4358,0.4385,0.4427,0.4452,0.4458,0.4504,0.4521,0.456,0.4581,0.4609,0.4667,0.4694,0.4716,0.4735,0.4751,0.4745,0.4744,0.4763,0.4764,0.4765,0.4772,0.4774,0.4748,0.4748,0.4748,0,0.4295,0.4341,0.4371,0.4401,0.4424,0.4449,0.4477,0.4502,0.4552,0.4567,0.4569,0.4641,0.467,0.4714,0.4718,0.4735,0.4743,0.4741,0.4762,0.4763,0.4765,0.4771,0.4774,0.4747,0.4747,0.4747,0.4747,0,0.433,0.4362,0.4379,0.4426,0.445,0.4479,0.4513,0.4534,0.455,0.4574,0.4613,0.4648,0.4689,0.4701,0.4718,0.4746,0.4747,0.4755,0.4759,0.4764,0.4771,0.4774,0.4745,0.4746,0.4746,0.4746,0,0,0.4331,0.4392,0.4398,0.4418,0.4465,0.449,0.4519,0.4558,0.4575,0.4608,0.4634,0.468,0.4687,0.4712,0.4732,0.4748,0.4761,0.4754,0.4756,0.4754,0.4793,0.4787,0.479,0.477,0.4771,0.4771,0.479,0,0.4349,0.4403,0.4429,0.4471,0.4501,0.4524,0.4549,0.458,0.4603,0.4631,0.4656,0.4689,0.4696,0.471,0.4727,0.4755,0.4769,0.4754,0.4794,0.4795,0.4784,0.4793,0.4788,0.4803,0.4792,0.4793,0.4793,0,0.4379,0.4411,0.4455,0.4496,0.451,0.4532,0.4569,0.4595,0.463,0.4646,0.4671,0.469,0.4722,0.4722,0.4765,0.4755,0.4772,0.4788,0.4789,0.4795,0.4795,0.4799,0.4809,0.4811,0.4798,0.4798,0.4797,0,0.4374,0.4428,0.4462,0.4479,0.4528,0.4543,0.4564,0.4599,0.462,0.4652,0.4665,0.47,0.472,0.4746,0.4774,0.4772,0.4814,0.4818,0.4828,0.4827,0.4837,0.4836,0.485,0.4847,0.4847,0.4847,0.4847,0,0.4393,0.4419,0.446,0.4481,0.4511,0.454,0.4569,0.4592,0.4622,0.4647,0.4669,0.4692,0.4727,0.4754,0.4776,0.4808,0.4817,0.483,0.4835,0.4828,0.4826,0.4841,0.4841,0.4848,0.4847,0.4847,0.4847,0,0.4394,0.4422,0.446,0.4503,0.4514,0.4534,0.457,0.4591,0.4614,0.4645,0.4654,0.469,0.4723,0.4753,0.4797,0.4812,0.4844,0.4851,0.4832,0.4835,0.4844,0.4843,0.4868,0.4872,0.4866,0.4866,0.4866,0,0.4404,0.4425,0.4469,0.4487,0.4507,0.4536,0.4557,0.4586,0.4607,0.4647,0.4662,0.4696,0.4726,0.4777,0.4807,0.484,0.4849,0.4855,0.4854,0.4845,0.4849,0.4847,0.4849,0.4855,0.4855,0.4855,0.4855,0,0.4419,0.4431,0.4461,0.4494,0.4518,0.4546,0.4575,0.4588,0.4622,0.4644,0.4678,0.47,0.4744,0.4778,0.4814,0.4836,0.4851,0.4854,0.4859,0.4852,0.484,0.4846,0.4832,0.4854,0.4854,0.4854,0.4854,0.4854,0.4425,0.4444,0.4477,0.4508,0.4532,0.4558,0.4579,0.4604,0.4632,0.467,0.4685,0.4718,0.4751,0.4801,0.4822,0.4849,0.4852,0.4858,0.486,0.4861,0.4859,0.4835,0.4856,0.4856,0.4856,0.4856,0.4856,0,0.4441,0.4463,0.4491,0.453,0.4554,0.4565,0.4596,0.4616,0.4645,0.4674,0.4701,0.4739,0.4771,0.4803,0.4836,0.4851,0.4859,0.4859,0.4859,0.4863,0.4855,0.4848,0.4852,0.4852,0.4852,0.4852,0.4852,0.4852,0.4452,0.4484,0.45,0.4544,0.4566,0.4599,0.4616,0.4639,0.4662,0.4703,0.4729,0.4749,0.4779,0.4814,0.4844,0.4852,0.4863,0.4862,0.4872,0.4864,0.4864,0.4864,0.4857,0.4864,0.4864,0.4878,0.4878,0.4878]},{"header":{"parameterUnit":"m.s-1","parameterCategory":1,"la1":30.2991,"la2":30.254,"lo1":-89.0895,"lo2":-89.0444,"dy":0.0017,"dx":0.0017,"nx":28,"ny":28,"refTime":"2025-02-01T09:00:00:Z","depth":0,"parameterNumber":3,"parameterNumberName":"V-component_of_WINDS"},"data":[0,0,0,0,0,0,0,0,0,0,0,0,0,0,0,0,0,0,0,0,0,0,0,0,0,0,0,0,0,0,0,0,0,0,0,0,0,0,0,0,0,0,0,0,0,0,0,0,0,0,0,0,0,0,0,0,0,0,2.224,2.224,0,2.2212,2.2211,2.2211,2.2233,2.2234,2.2235,2.2236,2.22,2.2198,2.2197,0,0,0,0,0,0,0,0,0,0,0,0,0,2.2308,2.2307,2.2241,2.224,2.224,2.2212,2.2211,2.2211,2.2233,2.2234,2.2235,2.2236,2.2201,2.2199,2.2197,0,0,0,0,0,0,0,0,0,0,0,0,0,2.2279,2.2306,2.2241,2.2247,2.2248,2.2212,2.2211,2.2211,2.2232,2.2234,2.2235,2.2237,2.2202,2.2199,2.2196,2.215,0,0,2.2188,2.2187,0,0,0,0,0,0,0,0,2.228,2.2276,2.2247,2.2247,2.2247,2.2227,2.2222,2.219,2.2232,2.2238,2.2236,2.2237,2.2208,2.2205,2.2196,2.2149,2.2147,2.2188,2.2186,2.2185,2.2184,0,0,0,0,0,0,0,2.2282,2.2278,2.2229,2.2246,2.2246,2.225,2.2247,2.2216,2.2215,2.2238,2.2239,2.2236,2.2208,2.2198,2.2195,2.2147,2.2188,2.2185,2.2183,2.2182,2.2057,2.2056,0,0,0,0,0,0,2.2285,2.2279,2.223,2.2228,2.2268,2.2247,2.2245,2.2232,2.2215,2.2214,2.2235,2.2237,2.2202,2.2198,2.2194,2.2137,2.2185,2.2182,2.2181,2.2059,2.2057,2.2055,0,0,0,0,0,0,2.2286,2.228,2.2231,2.2254,2.2248,2.2245,2.2231,2.2231,2.2221,2.2213,2.2212,2.2225,2.2203,2.2198,2.2161,2.2136,2.2181,2.2178,2.2061,2.2058,2.2056,2.2024,0,0,0,0,0,0,2.2288,2.228,2.2264,2.2254,2.2247,2.22,2.2229,2.2229,2.2217,2.222,2.2204,2.2203,2.2204,2.2165,2.2158,2.2133,2.2176,2.2063,2.206,2.2057,2.2027,2.2021,2.2015,0,0,0,0,0,2.229,2.2256,2.2264,2.2257,2.2227,2.2199,2.2195,2.2198,2.2215,2.2198,2.2192,2.2203,2.2141,2.2161,2.2153,2.2127,2.2065,2.2061,2.2057,2.203,2.2022,2.2015,0,0,0,0,0,0,2.2262,2.2255,2.2263,2.2225,2.2212,2.2203,2.2181,2.219,2.2171,2.2175,2.2178,2.2174,2.2135,2.2128,2.2151,2.2081,2.2105,2.2099,2.2087,2.2079,2.2073,2.2075,2.2174,0,0,0,0,0,2.2252,2.2232,2.2225,2.2192,2.2185,2.2184,2.2172,2.2176,2.2163,2.2157,2.2149,2.2134,2.211,2.2095,2.2073,2.2027,2.2022,2.2005,2.1999,2.1994,2.1989,2.1961,2.1952,2.2043,2.2043,2.2043,0,0,2.223,2.2223,2.221,2.2186,2.2177,2.2153,2.218,2.2154,2.2136,2.2153,2.2117,2.211,2.2093,2.2051,2.2032,2.2044,2.1963,2.1989,2.1986,2.1983,2.1956,2.1947,2.194,2.204,2.2041,2.2041,0,0,2.2177,2.2171,2.2141,2.2132,2.2119,2.2118,2.2111,2.2099,2.2096,2.2061,2.2072,2.205,2.201,2.1997,2.1985,2.1926,2.1934,2.1919,2.1886,2.1859,2.1852,2.1846,2.1822,2.1814,2.1914,2.1914,2.1914,0,2.215,2.2117,2.2125,2.2098,2.2086,2.2102,2.207,2.206,2.2039,2.203,2.2044,2.1993,2.1983,2.1937,2.1922,2.1913,2.1903,2.192,2.1853,2.1847,2.1841,2.1818,2.1809,2.1912,2.1912,2.1912,2.1912,0,2.2084,2.206,2.2038,2.2019,2.2005,2.1975,2.1976,2.196,2.1966,2.1963,2.1925,2.1914,2.1889,2.1878,2.1883,2.1832,2.1839,2.1853,2.1877,2.183,2.1808,2.18,2.1909,2.191,2.191,2.1911,0,0,2.2011,2.1997,2.1988,2.1979,2.1965,2.1946,2.1916,2.1894,2.1879,2.1864,2.1837,2.1803,2.1816,2.1802,2.1805,2.1782,2.1732,2.1798,2.1798,2.1784,2.1671,2.1659,2.1649,2.1739,2.1737,2.1736,2.1672,0,2.1956,2.1907,2.1912,2.1864,2.1841,2.1855,2.1829,2.1816,2.1813,2.1791,2.1786,2.1761,2.1781,2.1772,2.175,2.1743,2.1709,2.1748,2.171,2.1709,2.1712,2.1638,2.1625,2.1566,2.1664,2.1662,2.1661,0,2.1884,2.1868,2.1818,2.1806,2.1796,2.1773,2.1751,2.1731,2.1716,2.1715,2.1699,2.1706,2.1674,2.17,2.1654,2.168,2.1665,2.1659,2.1657,2.1651,2.1681,2.1628,2.1547,2.1537,2.1649,2.165,2.1651,0,2.1833,2.1798,2.1763,2.1755,2.1741,2.1724,2.1717,2.1703,2.1689,2.1669,2.1659,2.1636,2.1622,2.1603,2.1602,2.1622,2.1554,2.1581,2.1549,2.1549,2.1532,2.1533,2.1445,2.1527,2.1527,2.1527,2.1527,0,2.1769,2.1737,2.174,2.1718,2.1682,2.1688,2.1651,2.1645,2.1633,2.1608,2.162,2.1596,2.1598,2.1572,2.1571,2.1531,2.1526,2.1521,2.1521,2.1519,2.1519,2.1507,2.151,2.1525,2.1525,2.1526,2.1526,0,2.1704,2.1706,2.1668,2.1658,2.1655,2.1628,2.1618,2.1596,2.1594,2.1562,2.1555,2.155,2.1521,2.1519,2.1485,2.1484,2.1435,2.144,2.144,2.144,2.1407,2.1409,2.1307,2.1292,2.1386,2.1386,2.1385,0,2.1662,2.1638,2.1625,2.1611,2.1603,2.1579,2.1564,2.1568,2.1552,2.1532,2.1512,2.1485,2.1463,2.1415,2.1407,2.1381,2.1384,2.1349,2.1379,2.1377,2.1379,2.138,2.1376,2.1343,2.1342,2.1341,2.134,0,2.1586,2.1587,2.1567,2.1546,2.1529,2.1512,2.1496,2.1483,2.1485,2.1466,2.1437,2.142,2.1386,2.1358,2.1332,2.1322,2.1329,2.1331,2.1322,2.1318,2.1318,2.1314,2.1421,2.1333,2.1334,2.1334,2.1334,2.1335,2.1529,2.1507,2.1495,2.1471,2.146,2.1445,2.1423,2.1419,2.1396,2.1369,2.1373,2.134,2.1323,2.1289,2.1277,2.125,2.1261,2.1248,2.1245,2.1241,2.1236,2.1325,2.1246,2.1246,2.1246,2.1246,2.1246,0,2.1451,2.1444,2.1422,2.14,2.1381,2.1393,2.1376,2.1358,2.133,2.1315,2.1293,2.1259,2.1231,2.1221,2.1193,2.1173,2.1175,2.1165,2.1165,2.1162,2.1229,2.1239,2.1163,2.1163,2.1163,2.1163,2.1163,2.1163,2.1408,2.1371,2.1371,2.1328,2.132,2.129,2.1279,2.1264,2.1252,2.1213,2.1191,2.1185,2.1171,2.1142,2.1116,2.1113,2.1101,2.1088,2.1087,2.1149,2.1157,2.1165,2.1174,2.1086,2.1086,2.1021,2.1021,2.102]}]]